COSMOS 2251 DEB, 35989

Orbit data source: Space-Track

COSMOS 2251 DEB, 35989 is space debris in LEO originally from a launch on Wed, 16 Jun 1993 UTC launched from the Plesetsk Missile And Space Complex (PKMTR). The debris from Iridium 33, an American commercial communications satellite, has been tracked extensively since its accidental collision with the defunct Russian satellite Cosmos 2251 in 2009. This event, occurring at high speed in low Earth orbit (LEO), generated thousands of pieces of space debris, significantly increasing the risk of further collisions. The Iridium 33 debris cloud has impacted space traffic management and orbital debris mitigation strategies, making it a subject of ongoing study in space situational awareness.

Loading next visibility...
Identifier
35989, 1993-036AWF
Orbit
LEO
Country
Flag of CISCIS
Related business
Manufacturer
Unknown
Mission
Spacecraft
Bus & Motor
Unknown
Mass
Unknown
Launch date (UTC)
1993-06-16 (33 years ago)
Launch vehicle
Unknown
Launch site
Plesetsk Missile And Space Complex (PKMTR)
Object type
Payload
Rocket body
Debris
Shape & HBR
Unknown shape, 0.1 m
Radar Cross Section
Small (<0.1 m²)

Expand to show TLE details & history
Last TLE update: 1 week ago

TLE from 1 week ago
0 COSMOS 2251 DEB
1 35989U 93036AWF 26161.68016902  .00000332  00000-0  11993-3 0  9997
2 35989  74.0389 312.8773 0022507 352.5649   7.5168 14.37300118897647
Epoch: 2026-06-10T16:19Z
TLE epoch observation values (Epoch: 2026-06-10T16:19:26.603Z)
Latitude
0.00006°
Longitude
168.98163°
Altitude
754.099 km
Speed
7.486 km/s
True Right ascension
20h 51m 30s
True Declination
0° 00' 00"
Sunlit
Object was in full shadow at epoch
Visualization orbit readout
Latitude
Unknown
Longitude
Unknown
Altitude
Unknown
Speed
Unknown
Apparent Right ascension
Unknown
Apparent Declination
Unknown
Sunlit
N/A
Visualization observer readout
Local Sidereal Time
20:29:38
Azimuth
Unknown
Elevation
Unknown
Doppler factor
Unknown
Orbital elements
Apogee altitude
781.132 km
Perigee altitude
748.978 km
Semi-major axis
7,143.192 km
Eccentricity
0.00225
Inclination
74.0389°
RAAN
312.8773°
Arg. of periapsis
352.5649°
True anomaly
7.55063°
Mean anomaly
7.5168°
Eccentric anomaly
7.53371°
Mean motion
3.59505 °/min
Orbital period
100.14 mins
BSTAR
0.00011993

Documentation

Showing up to 5 results
|